Location: Unspecified
(0.0000°N, 0.0000°E)
Time: 15:21:52
(UTC+00:00)

S-56A Canister/Altair - All Passes

Search period start: 13 December 2018 00:00
Search period end: 23 December 2018 00:00
Orbit: 631 x 2501 km, 38.9° (Epoch: 12 December)

Date Brightness Start Highest point End Pass type
(mag) Time Alt. Az. Time Alt. Az. Time Alt. Az.
13 Dec - 00:03:46 10° SW 00:09:28 90° NNW 00:18:07 10° NE night (unlit)
13 Dec - 02:09:34 10° WNW 02:15:12 21° NNW 02:22:35 10° NNE visible
13 Dec - 08:40:04 10° N 08:49:26 19° NNE 08:58:02 10° ENE daylight
13 Dec - 10:43:48 10° NW 10:57:57 54° NE 11:08:27 10° ESE daylight
13 Dec - 12:51:26 10° WNW 13:03:46 49° SW 13:12:18 10° SSE daylight
13 Dec - 23:31:30 10° SW 23:36:50 74° SE 23:44:43 10° NE night (unlit)
14 Dec - 01:36:37 10° W 01:42:06 23° NNW 01:49:24 10° NNE night (unlit)
14 Dec - 08:07:13 10° N 08:15:36 17° NNE 08:23:35 10° ENE daylight
14 Dec - 10:10:20 10° NNW 10:24:28 48° NE 10:35:26 10° ESE daylight
14 Dec - 12:17:22 10° WNW 12:30:43 58° SW 12:39:59 10° SSE daylight
14 Dec - 14:32:57 10° WSW 14:35:33 11° SW 14:37:56 10° SSW daylight
14 Dec - 22:59:19 10° SW 23:04:18 57° SE 23:11:20 10° ENE night (unlit)
15 Dec - 01:03:47 10° W 01:09:05 25° NNW 01:16:16 10° NNE night (unlit)
15 Dec - 07:34:37 10° N 07:41:43 15° NNE 07:48:42 10° NE daylight
15 Dec - 09:36:58 10° NNW 09:50:54 43° NE 10:02:16 10° ESE daylight
15 Dec - 11:43:25 10° NW 11:57:33 68° SW 12:07:33 10° SE daylight
15 Dec - 13:56:39 10° WSW 14:02:34 15° SW 14:07:32 10° S daylight
15 Dec - 22:27:11 10° SSW 22:31:48 43° SE 22:37:58 10° ENE night (unlit)
16 Dec - 00:31:02 10° W 00:36:09 28° NNW 00:43:11 10° NNE night (unlit)
16 Dec - 07:02:26 10° N 07:07:48 12° NNE 07:13:12 10° NE daylight
16 Dec - 09:03:41 10° NNW 09:17:16 39° NE 09:28:55 10° E daylight
16 Dec - 11:09:33 10° NW 11:24:17 77° SW 11:35:01 10° SE daylight
16 Dec - 13:21:22 10° W 13:29:33 20° SW 13:36:05 10° S daylight
16 Dec - 21:55:10 10° SSW 21:59:20 31° SE 22:04:35 10° ENE night (unlit)
16 Dec - 23:58:23 10° W 00:03:19 32° NW 00:10:08 10° NNE night (unlit)
17 Dec - 06:31:29 10° NNE 06:33:52 10° NNE 06:36:16 10° NE daylight
17 Dec - 08:30:32 10° NNW 08:43:36 35° NE 08:55:22 10° E daylight
17 Dec - 10:35:49 10° NW 10:50:55 87° SW 11:02:20 10° SE daylight
17 Dec - 12:46:28 10° W 12:56:29 26° SW 13:04:16 10° S daylight
17 Dec - 21:23:13 10° S 21:26:53 23° SE 21:31:08 10° E visible
17 Dec - 23:25:47 10° WSW 23:30:34 37° NW 23:37:09 10° NNE night (unlit)
18 Dec - 07:57:29 10° NNW 08:09:54 31° NE 08:21:35 10° E daylight
18 Dec - 10:02:11 10° NW 10:17:28 84° NE 10:29:32 10° SE daylight
18 Dec - 12:11:50 10° W 12:23:21 31° SW 12:32:13 10° SSE daylight
18 Dec - 20:51:27 10° S 20:54:23 17° SE 20:57:35 10° E visible
18 Dec - 22:53:15 10° WSW 22:57:54 45° NW 23:04:12 10° NE night (unlit)
19 Dec - 07:24:36 10° NNW 07:36:11 27° NE 07:47:33 10° E daylight
19 Dec - 09:28:39 10° NW 09:43:57 76° NE 09:56:36 10° SE daylight
19 Dec - 11:37:24 10° WNW 11:50:08 37° SW 11:59:58 10° SSE daylight
19 Dec - 20:20:02 10° SSE 20:21:51 12° SE 20:23:42 10° ESE visible
19 Dec - 22:20:46 10° WSW 22:25:19 56° NW 22:31:18 10° NE night (unlit)
20 Dec - 06:51:52 10° NNW 07:02:27 24° NE 07:13:15 10° E daylight
20 Dec - 08:55:16 10° NW 09:10:22 68° NE 09:23:31 10° ESE daylight
20 Dec - 11:03:09 10° WNW 11:16:50 44° SW 11:27:35 10° SSE daylight
20 Dec - 21:48:19 10° SW 21:52:48 72° NW 21:58:25 10° NE night (unlit)
20 Dec - 23:57:21 10° NNW 23:57:51 10° NNW 23:58:23 10° NNW night (unlit)
21 Dec - 06:19:19 10° N 06:28:44 20° NE 06:38:35 10° ENE daylight
21 Dec - 08:22:01 10° NW 08:36:44 60° NE 08:50:16 10° ESE daylight
21 Dec - 10:29:05 10° WNW 10:43:28 51° SW 10:55:04 10° SSE daylight
21 Dec - 12:45:18 10° WSW 12:49:55 12° SW 12:54:04 10° SSW daylight
21 Dec - 21:15:55 10° SW 21:20:20 86° SE 21:25:36 10° NE visible
21 Dec - 23:23:11 10° NW 23:24:58 11° NNW 23:26:53 10° N night (unlit)
22 Dec - 05:47:03 10° N 05:55:01 17° NE 06:03:32 10° ENE daylight
22 Dec - 07:48:52 10° NNW 08:03:06 54° NE 08:16:51 10° ESE daylight
22 Dec - 09:55:11 10° WNW 10:10:00 59° SW 10:22:25 10° SE daylight
22 Dec - 12:09:10 10° WSW 12:16:34 16° SW 12:23:00 10° S daylight
22 Dec - 20:43:32 10° SW 20:47:54 64° SE 20:52:45 10° ENE visible
22 Dec - 22:49:47 10° WNW 22:52:09 13° NNW 22:54:47 10° N night (unlit)
